Weather Roundup
Issued by NWS

Home | Current Version | Previous Version | Text Only | Print | Product List | Glossary On
Versions: 1 2 3 4 5 6 7 8 9 10 11 12 13 14 15 16 17 18 19 20 21 22 23 24 25 26 27 28 29 30 31 32 33 34 35 36 37 38 39 40 41 42 43 44 45 46 47 48 49 50
000
NZUS93 KARX 042110
HRRWXR

CURRENT HOURLY OBSERVATIONS ACROSS
MUCH OF THE UPPER MISSISSIPPI VALLEY
NATIONAL WEATHER SERVICE LA CROSSE WI
400 PM CDT FRI SEP 04 2015


...SOUTHEAST MINNESOTA...


CITY           SKY/WX    TMP DP  RH WIND       PRES   REMARKS
ROCHESTER      FAIR      86  72  62 SE15G21   29.96F HX  92
ROCHESTER/MAYO FAIR      87  69  55 SE13      29.95F HX  91
WINONA         FAIR      90  73  58 E9        29.95F HX  98
AUSTIN         FAIR      88  73  62 S9        29.94S HX  96
ALBERT LEA     FAIR      88  72  58 S12G17    29.93S HX  94
DODGE CENTER   FAIR      84  72  65 S10G16    29.94F
PRESTON        FAIR      86  70  58 SE9       29.97F HX  91
OWATONNA       FAIR      88  72  58 SE14      29.92S HX  94
FARIBAULT      FAIR      88  73  62 SE12G17   29.92S HX  96
$$

...ELSEWHERE IN MINNESOTA...


CITY           SKY/WX    TMP DP  RH WIND       PRES   REMARKS
MINNEAPOLIS    FAIR      89  72  56 SE18G24   29.89F HX  96
INTNL FALLS    FAIR      85  70  60 SE16G22   29.88F
DULUTH         FAIR      76  65  68 E17       29.96F
RED WING       FAIR      88  72  58 SE13      29.90F HX  94
REDWOOD FALLS  FAIR      86  72  62 S12       29.86S HX  92
MANKATO        FAIR      88  73  62 S13G18    29.89S HX  96
WORTHINGTON    CLOUDY    75  70  83 CALM      29.93R
FAIRMONT       FAIR      84  70  61 S13       29.91R
$$

...SOUTHWEST WISCONSIN...


CITY           SKY/WX    TMP DP  RH WIND       PRES   REMARKS
LA CROSSE      PTSUNNY   86  71  60 SE7       29.94F HX  91
PRAIRIE DU CHI FAIR      88  67  50 SE7       29.95F HX  91
BOSCOBEL       FAIR      89  71  55 CALM      29.96F HX  95
LONE ROCK      FAIR      87  71  58 S5        29.98F HX  93
PLATTEVILLE    FAIR      87  72  62 S6        29.99F HX  93
FORT MC COY    FAIR      86  69  57 SE8       29.98F HX  90
CAMP DOUGLAS   FAIR      83  75  78 SE6       29.99F HX  90
VIROQUA        FAIR      86  70  60 SE3       30.00S HX  90
WIS DELLS      FAIR      83  68  61 E7        30.01F
$$

...ELSEWHERE IN WISCONSIN...


CITY           SKY/WX    TMP DP  RH WIND       PRES   REMARKS
MILWAUKEE      PTSUNNY   71  65  81 NE9       30.02F
MADISON        FAIR      84  71  65 E7        30.00F
GREEN BAY      FAIR      77  67  71 NE8       30.04S
EAU CLAIRE     FAIR      85  71  63 SE10      29.96F HX  90
BLACK RVR FLS  MOCLDY    87  68  53 E5        29.97F HX  90
MEDFORD        FAIR      78  67  69 E8        30.02F
WAUSAU         PTSUNNY   82  66  58 E7        30.02F
WIS RAPIDS     PTSUNNY   82  65  56 SE7       30.03F
MARSHFIELD     FAIR      81  64  56 E8        30.02F
RICE LAKE      FAIR      81  70  68 SE10      29.98F
$$

...NORTHEAST IOWA...


CITY           SKY/WX    TMP DP  RH WIND       PRES   REMARKS
DECORAH        FAIR      86  72  62 S7        29.96F HX  92
MASON CITY     FAIR      89  74  60 S14       29.95F HX  98
CHARLES CITY   FAIR      88  73  62 S10       29.96S HX  96
OELWEIN        FAIR      88  72  58 S9        29.97S HX  94
$$

...ELSEWHERE IN IOWA...


CITY           SKY/WX    TMP DP  RH WIND       PRES   REMARKS
DES MOINES     PTSUNNY   89  70  53 S12       29.93S HX  94
IOWA CITY      FAIR      90  68  48 S9        29.96F HX  94
FORT DODGE     FAIR      84  72  65 S9        29.94R
$$

...NORTHERN ILLINOIS...


CITY           SKY/WX    TMP DP  RH WIND       PRES   REMARKS
CHICAGO-OHARE  PTSUNNY   80  66  62 NE9       30.00S
CHICAGO-MIDWAY FAIR      80  68  66 NE10      30.00F
MOLINE         FAIR      92  69  47 SW9       29.96F HX  97
ROCKFORD       FAIR      90  70  51 NW5       30.00F HX  95
PEORIA         FAIR      96  66  37 W7        29.97F HX  99
$$

NOTE: "FAIR" INDICATES FEW OR NO CLOUDS BELOW 12,000 FEET WITH NO
SIGNIFICANT WEATHER AND/OR OBSTRUCTIONS TO VISIBILITY. WIND
SPEEDS ARE IN MILES-PER-HOUR.



USA.gov is the U.S. government's official web portal to all federal, state and local government web resources and services.